Location: Newark
(16.3678°N, 77.8722°E)
Time: 07:57:24
(UTC+00:00)

Tiros 1 - Pass Details

Date: 18 December 2019
Orbit: 630 x 664 km, 48.4° (Epoch: 20 January)

Event Time Altitude Azimuth Distance (km) Brightness Sun altitude
Rises 20:05:50 0° 234° (SW) 2,984 - -69.8°
Reaches altitude 10° 20:08:16 10° 240° (WSW) 2,071 - -69.3°
Maximum altitude 20:12:51 46° 313° (NW) 888 - -68.2°
Drops below altitude 10° 20:17:25 10° 27° (NNE) 2,061 - -67.2°
Sets 20:19:50 0° 33° (NNE) 2,968 - -66.7°
